Regional Weather Roundup
Issued by NWS

Home | Current Version | Previous Version | Text Only | Print | Product List | Glossary Off
Versions: 1 2 3 4 5 6 7 8 9 10 11 12 13 14 15 16 17 18 19 20 21 22 23 24 25 26 27 28 29 30 31 32 33 34 35 36 37 38 39 40 41 42 43 44 45 46 47

000
ASUS45 KBOU 191810
RWRCO

WEATHER ROUNDUP FOR COLORADO
NATIONAL WEATHER SERVICE PUEBLO CO
1100 AM MST MON FEB 19 2018

NOTE: "FAIR" INDICATES FEW OR NO CLOUDS BELOW 12000 FEET WITH NO
SIGNIFICANT WEATHER AND/OR OBSTRUCTIONS TO VISIBILITY.

COZ001>005-013-030-031-191900-
...NORTHWEST COLORADO...

CITY           SKY/WX    TMP DP  RH WIND       PRES   REMARKS
CRAIG          HVY SNOW  12   7  80 W15       29.41R VSB 1/4 WCI  -4
HAYDEN         HVY SNOW  14  12  92 W8        29.38R VSB<1/4 WCI   3
MEEKER         LGT SNOW  35  30  82 SW13      29.30F WCI  26
RABBIT EARS PA NOT AVBL
STEAMBOAT SPGS CLOUDY    30  22  72 SW10      29.32R WCI  21
WALDEN         PTSUNNY   34  18  51 SW25G40   29.31S WCI  21
$$

COZ006>008-011-191900-
...WEST CENTRAL VALLEYS...

CITY           SKY/WX    TMP DP  RH WIND       PRES   REMARKS
GRAND JUNCTION PTSUNNY   44  30  57 S31G49    29.33F
MONTROSE       LGT RAIN  47  25  42 SW21G28   29.39F
EAGLE          LGT RAIN  40  27  59 W16G24    29.37F
RIFLE          PTSUNNY   47  17  30 SW25G41   29.31F
DELTA          NOT AVBL
NUCLA          CLOUDY    46  28  49 S26G40    29.43S
$$

COZ017>023-064>068-191900-
...SOUTHWEST COLORADO...

CITY           SKY/WX    TMP DP  RH WIND       PRES   REMARKS
DURANGO        PTSUNNY   44  38  79 SW26G40   29.54F
CORTEZ         CLOUDY    47  23  38 SW32G44   29.51F
PAGOSA SPRINGS CLOUDY    38  32  79 S31G39    29.56F HAZE
TELLURIDE      SNOW      28  26  89 SE6       29.47F VSB 1/2 WCI  22
WOLF CREEK PAS CLOUDY    19  19 100 S47       29.47F WCI  -3
$$

COZ009-010-012-014-032>034-037-058>063-191900-
...CENTRAL COLORADO...

CITY           SKY/WX    TMP DP  RH WIND       PRES   REMARKS
ASPEN          LGT SNOW  32  24  72 NW8       29.36F WCI  25
BUENA VISTA    CLOUDY    40  19  42 S18G25    29.41F
COPPER MTN     SNOW      23  14  68 S25G33    29.42S VSB 1/2 WCI   7
BERTHOUD PASS  PTSUNNY   19   9  63 SW16G38   29.41S WCI   5
COTTONWOOD PAS LGT SNOW  32  27  80 CALM      29.44F
GUNNISON       NOT AVBL
KREMMLING      CLOUDY    41  28  60 W12       29.37F
LEADVILLE      LGT SNOW  25  14  63 SW10G23   29.39F WCI  15
MONARCH PASS   CLOUDY    21  19  93 SW49G59   29.52F WCI  -1
SALIDA         CLOUDY    42  25  50 S14G24    29.50F
SUNLIGHT       LGT SNOW  21  19  93 SW21G38   29.37S WCI   6
WILKERSON PASS CLOUDY    27  19  74 SW13G26   29.46F HAZE    WCI  16
$$

COZ069>075-191900-
...SAN LUIS VALLEY/SANGRE DE CRISTO MOUNTAINS...

CITY           SKY/WX    TMP DP  RH WIND       PRES   REMARKS
ALAMOSA        LGT SNOW  35  33  92 S25G33    29.55F FOG     WCI  23
DEL NORTE      FLURRIES  35  29  76 S5G16     29.51F WCI  31
LA VETA PASS   LGT SNOW  32  23  69 S31G55    29.65F WCI  17
SAGUACHE       LGT SNOW  32  32 100 SW24      29.51F WCI  19
$$

COZ035-036-038>040-191900-
...NORTHERN COLORADO FRONT RANGE...

CITY           SKY/WX    TMP DP  RH WIND       PRES   REMARKS
DENVER INTL AP LGT SNOW  11   7  84 E12       29.63F WCI  -3
DMNS CITY PARK NOT AVBL
AURORA         FLURRIES  12  10  92 E7        29.62F WCI   1
FRONT RANGE AP LGT SNOW  14  10  85 E10       29.64F WCI   1
ERIE MUNI ARPT LGT SNOW  13   9  85 E3        29.72S
BOULDER MUN AP LGT SNOW  14  10  85 E3        29.65F
CENTENNIAL     LGT SNOW  13  10  88 NE7       29.59F FOG     WCI   3
BROOMFIELD     LGT SNOW  12   9  85 N5        29.63F VSB 1   WCI   4
LOVELAND       LGT SNOW  13   8  81 E10       29.67F WCI   0
LONGMONT       LGT SNOW  16  10  76 E3        29.68F
$$

COZ041-046-047-076>085-087-088-191900-
...PIKES PEAK/PALMER DIVIDE AND SOUTHERN FOOTHILLS...

CITY           SKY/WX    TMP DP  RH WIND       PRES   REMARKS
COLO. SPRINGS  LGT SNOW  15  14  95 S16       29.60F VSB 3/4 WCI  -1
A. F. ACADEMY  LGT SNOW  15  12  90 S14       29.56F FOG     WCI   0
SCHRIEVER AFB  NOT AVBL
CHEYENNE MTN   NOT AVBL
ELLICOTT         N/A    N/A N/A N/A S8        29.59F
FALCON         SNOW      14  13  95 MISG      29.57F VSB<1/4
FORT CARSON    CLOUDY    16  14  93 S13       29.60F WCI   2
LIMON          FLURRIES  14  11  87 E3        29.65F
MONUMENT HILL  FLURRIES N/A N/A N/A SE3       29.53S
CANON CITY     CLOUDY    21  19  93 E7        29.63F FOG     WCI  13
WALSENBURG     CLOUDY    23  21  93 E7        29.60F WCI  15
TRINIDAD       CLOUDY    24  21  88 E8        29.61F FOG     WCI  15
$$

COZ042>045-048>051-090-091-191900-
...NORTHEAST COLORADO...

CITY           SKY/WX    TMP DP  RH WIND       PRES   REMARKS
GREELEY ARPT   FLURRIES  12   7  80 E9        29.71F WCI   0
AKRON          LGT SNOW  10   7  87 NE9       29.71S FOG     WCI  -3
BURLINGTON     LGT SNOW  15  11  83 N9        29.75F FOG     WCI   3
WRAY           LGT SNOW  16  10  79 NE9       29.80F WCI   4
YUMA           NOT AVBL
STERLING       LGT SNOW  12   9  85 NE10      29.76F WCI  -1
HOLYOKE        FLURRIES  18  12  79 NE9       29.80F WCI   6
FORT MORGAN    LGT SNOW  13   7  76 NE8       29.74F WCI   1
$$

COZ086-089-092>099-191900-
...SOUTHEAST COLORADO...

CITY           SKY/WX    TMP DP  RH WIND       PRES   REMARKS
PUEBLO         FLURRIES  20  14  77 SE6       29.69F WCI  12
LA JUNTA       CLOUDY    21  12  68 NE6       29.73F WCI  13
LAMAR          FLURRIES  22  10  60 NE7       29.76F WCI  13
SPRINGFIELD      N/A     22  18  85 E5        29.72S WCI  16
$$





USA.gov is the U.S. government's official web portal to all federal, state and local government web resources and services.